TimeEDT,TemperatureF,Dew PointF,Humidity,Sea Level PressureIn,VisibilityMPH,Wind Direction,Wind SpeedMPH,Gust SpeedMPH,PrecipitationIn,Events,Conditions,WindDirDegrees,DateUTC
12:18 AM,59.0,55.4,88,30.01,10.0,East,6.9,-,N/A,,Overcast,100,2013-05-08 04:18:00
12:36 AM,59.0,55.4,88,30.02,7.0,East,5.8,-,N/A,,Overcast,90,2013-05-08 04:36:00
12:57 AM,59.0,55.4,88,30.02,7.0,East,4.6,-,N/A,,Overcast,80,2013-05-08 04:57:00
1:18 AM,59.0,55.4,88,30.01,7.0,East,5.8,-,N/A,,Overcast,90,2013-05-08 05:18:00
1:39 AM,59.0,55.4,88,30.01,7.0,ENE,3.5,-,N/A,,Overcast,70,2013-05-08 05:39:00
1:57 AM,57.2,55.4,94,30.00,7.0,ENE,3.5,-,N/A,,Overcast,70,2013-05-08 05:57:00
2:18 AM,57.2,55.4,94,29.99,10.0,East,5.8,-,N/A,,Overcast,80,2013-05-08 06:18:00
2:57 AM,57.2,55.4,94,29.99,10.0,Calm,Calm,-,N/A,,Overcast,0,2013-05-08 06:57:00
3:18 AM,57.2,55.4,94,29.99,10.0,ENE,4.6,-,N/A,,Overcast,70,2013-05-08 07:18:00
3:39 AM,57.2,55.4,94,29.99,10.0,East,4.6,-,N/A,,Overcast,80,2013-05-08 07:39:00
3:57 AM,57.2,55.4,94,29.98,10.0,ENE,3.5,-,N/A,,Overcast,60,2013-05-08 07:57:00
4:18 AM,57.2,55.4,94,29.98,10.0,Calm,Calm,-,N/A,,Overcast,0,2013-05-08 08:18:00
4:39 AM,57.2,55.4,94,29.99,7.0,East,3.5,-,N/A,,Overcast,90,2013-05-08 08:39:00
4:57 AM,57.2,55.4,94,29.98,7.0,Calm,Calm,-,N/A,,Overcast,0,2013-05-08 08:57:00
5:18 AM,57.2,55.4,94,29.98,5.0,East,3.5,-,N/A,,Overcast,80,2013-05-08 09:18:00
5:39 AM,55.4,55.4,100,29.99,5.0,Calm,Calm,-,N/A,,Overcast,0,2013-05-08 09:39:00
5:57 AM,55.4,55.4,100,29.99,5.0,Calm,Calm,-,N/A,,Overcast,0,2013-05-08 09:57:00
6:18 AM,55.4,55.4,100,30.00,5.0,ENE,3.5,-,N/A,,Overcast,70,2013-05-08 10:18:00
6:39 AM,57.2,55.4,94,30.00,7.0,ENE,3.5,-,N/A,,Overcast,60,2013-05-08 10:39:00
6:57 AM,57.2,53.6,88,30.01,7.0,NE,4.6,-,N/A,,Overcast,50,2013-05-08 10:57:00
7:18 AM,57.2,55.4,94,30.01,7.0,ENE,3.5,-,N/A,,Overcast,60,2013-05-08 11:18:00
7:39 AM,59.0,55.4,88,30.01,7.0,NNE,4.6,-,N/A,,Overcast,30,2013-05-08 11:39:00
7:57 AM,59.0,53.6,82,30.02,7.0,Calm,Calm,-,N/A,,Overcast,0,2013-05-08 11:57:00
8:18 AM,57.2,53.6,88,30.02,7.0,Calm,Calm,-,N/A,,Overcast,0,2013-05-08 12:18:00
8:39 AM,59.0,53.6,82,30.03,5.0,ENE,3.5,-,N/A,,Overcast,70,2013-05-08 12:39:00
8:57 AM,59.0,53.6,82,30.03,7.0,Calm,Calm,-,N/A,,Overcast,0,2013-05-08 12:57:00
9:18 AM,59.0,53.6,82,30.03,10.0,East,4.6,-,N/A,,Overcast,100,2013-05-08 13:18:00
9:39 AM,60.8,55.4,82,30.03,10.0,ESE,6.9,-,N/A,,Overcast,110,2013-05-08 13:39:00
10:00 AM,60.8,53.6,77,30.03,10.0,SSE,3.5,-,N/A,,Overcast,150,2013-05-08 14:00:00
10:18 AM,60.8,55.4,82,30.03,10.0,Calm,Calm,-,N/A,,Overcast,0,2013-05-08 14:18:00
10:39 AM,62.6,55.4,77,30.03,10.0,Calm,Calm,-,N/A,,Overcast,0,2013-05-08 14:39:00
11:00 AM,62.6,55.4,77,30.03,10.0,SW,3.5,-,N/A,,Mostly Cloudy,220,2013-05-08 15:00:00
11:18 AM,64.4,55.4,73,30.03,10.0,South,3.5,-,N/A,,Mostly Cloudy,170,2013-05-08 15:18:00
11:39 AM,64.4,55.4,73,30.02,10.0,Calm,Calm,-,N/A,,Clear,0,2013-05-08 15:39:00
12:00 PM,66.2,53.6,64,30.02,10.0,Calm,Calm,-,N/A,,Scattered Clouds,0,2013-05-08 16:00:00
12:18 PM,68.0,53.6,60,30.01,10.0,WNW,4.6,-,N/A,,Mostly Cloudy,300,2013-05-08 16:18:00
12:39 PM,64.4,53.6,68,30.01,10.0,SSE,4.6,-,N/A,,Scattered Clouds,150,2013-05-08 16:39:00
1:00 PM,64.4,53.6,68,30.01,10.0,South,5.8,-,N/A,,Clear,180,2013-05-08 17:00:00
1:18 PM,68.0,53.6,60,30.00,10.0,Calm,Calm,-,N/A,,Scattered Clouds,0,2013-05-08 17:18:00
1:39 PM,68.0,53.6,60,29.99,10.0,South,5.8,-,N/A,,Scattered Clouds,170,2013-05-08 17:39:00
2:00 PM,68.0,53.6,60,29.98,10.0,East,4.6,-,N/A,,Mostly Cloudy,80,2013-05-08 18:00:00
2:18 PM,66.2,53.6,64,29.98,10.0,South,3.5,-,N/A,,Mostly Cloudy,180,2013-05-08 18:18:00
2:39 PM,60.8,57.2,88,29.98,4.0,SW,5.8,-,N/A,,Overcast,220,2013-05-08 18:39:00
3:00 PM,60.8,59.0,94,29.97,5.0,WNW,3.5,-,N/A,,Mostly Cloudy,290,2013-05-08 19:00:00
3:18 PM,60.8,57.2,88,29.97,4.0,WSW,3.5,-,N/A,,Mostly Cloudy,240,2013-05-08 19:18:00
3:39 PM,59.0,57.2,94,29.98,2.5,South,6.9,-,N/A,,Overcast,180,2013-05-08 19:39:00
4:00 PM,59.0,53.6,82,29.98,3.0,Calm,Calm,-,N/A,,Overcast,0,2013-05-08 20:00:00
4:18 PM,57.2,53.6,88,30.00,3.0,South,9.2,-,N/A,,Overcast,170,2013-05-08 20:18:00
4:39 PM,55.4,53.6,94,30.00,2.0,SSE,5.8,-,N/A,,Overcast,150,2013-05-08 20:39:00
5:00 PM,55.4,53.6,94,30.00,2.0,South,3.5,-,N/A,,Overcast,190,2013-05-08 21:00:00
5:18 PM,55.4,53.6,94,29.99,1.8,Calm,Calm,-,N/A,,Overcast,0,2013-05-08 21:18:00
5:39 PM,55.4,53.6,94,29.99,4.0,SSW,4.6,-,N/A,,Overcast,200,2013-05-08 21:39:00
6:00 PM,55.4,55.4,100,29.98,7.0,SW,4.6,-,N/A,,Scattered Clouds,220,2013-05-08 22:00:00
6:21 PM,57.2,55.4,94,29.98,10.0,SSW,3.5,-,N/A,,Clear,210,2013-05-08 22:21:00
6:39 PM,57.2,55.4,94,29.98,7.0,SSW,3.5,-,N/A,,Scattered Clouds,200,2013-05-08 22:39:00
7:00 PM,57.2,55.4,94,29.98,5.0,SW,3.5,-,N/A,,Mostly Cloudy,230,2013-05-08 23:00:00
7:21 PM,57.2,55.4,94,29.98,7.0,SW,3.5,-,N/A,,Mostly Cloudy,220,2013-05-08 23:21:00
7:39 PM,55.4,53.6,94,29.98,5.0,Calm,Calm,-,N/A,,Scattered Clouds,0,2013-05-08 23:39:00
8:00 PM,55.4,53.6,94,29.98,4.0,Calm,Calm,-,N/A,,Mostly Cloudy,0,2013-05-09 00:00:00
8:21 PM,55.4,53.6,94,29.99,3.0,Calm,Calm,-,N/A,,Overcast,0,2013-05-09 00:21:00
8:39 PM,55.4,53.6,94,29.99,4.0,Calm,Calm,-,N/A,,Overcast,0,2013-05-09 00:39:00
9:00 PM,55.4,53.6,94,30.00,3.0,Calm,Calm,-,N/A,,Overcast,0,2013-05-09 01:00:00
9:21 PM,55.4,53.6,94,30.00,4.0,Calm,Calm,-,N/A,,Overcast,0,2013-05-09 01:21:00
9:39 PM,55.4,53.6,94,30.00,4.0,Calm,Calm,-,N/A,,Mostly Cloudy,0,2013-05-09 01:39:00
10:00 PM,53.6,53.6,100,30.00,1.5,ESE,3.5,-,N/A,,Overcast,120,2013-05-09 02:00:00
10:21 PM,53.6,51.8,94,30.01,1.8,Calm,Calm,-,N/A,,Overcast,0,2013-05-09 02:21:00
10:39 PM,53.6,51.8,94,30.01,1.0,Calm,Calm,-,N/A,,Overcast,0,2013-05-09 02:39:00
11:00 PM,53.6,51.8,94,30.00,0.8,Calm,Calm,-,N/A,,Overcast,0,2013-05-09 03:00:00
11:21 PM,53.6,51.8,94,29.99,1.8,Calm,Calm,-,N/A,,Overcast,0,2013-05-09 03:21:00
11:39 PM,53.6,51.8,94,30.00,2.5,Calm,Calm,-,N/A,,Overcast,0,2013-05-09 03:39:00